Location: Normandy Village
(37.8755°N, 122.2655°W)
Time: 07:00:14
(UTC+00:00)

ATLAS 3B R/B - Pass Details

Date: 14 December 2019
Orbit: 1027 x 1168 km, 63.8° (Epoch: 19 January)

Event Time Altitude Azimuth Distance (km) Brightness Sun altitude
Rises 14:17:21 0° 198° (SSW) 3,832 5.6 -11.5°
Reaches altitude 10° 14:20:02 10° 195° (SSW) 2,863 5.0 -11.0°
Maximum altitude 14:26:37 60° 117° (ESE) 1,178 3.3 -9.8°
Drops below altitude 10° 14:33:08 10° 39° (NE) 2,827 5.1 -8.6°
Sets 14:35:46 0° 36° (NE) 3,781 5.8 -8.1°
